Weather History for Ft Riley, KS

Change the Weather History Date:

Saturday, February 1, 2014

  Actual Average (KMHK) Record (KMHK)
Temperature  
Mean Temperature 24 °F 30 °F  
Max Temperature 28 °F 42 °F 63 °F (2003)
Min Temperature 18 °F 18 °F 0 °F (2002)
Degree Days  
Heating Degree Days 42 35  
Month to date heating degree days 35  
Since 1 July heating degree days 3301  
Cooling Degree Days 0 0  
Month to date cooling degree days 0  
Year to date cooling degree days 0  
Moisture  
Dew Point 19 °F    
Average Humidity 86    
Maximum Humidity 100    
Minimum Humidity 61    
Precipitation  
Precipitation 0.11 in 0.03 in 0.33 in (2004)
Month to date precipitation 0.03  
Year to date precipitation 0.68  
Sea Level Pressure  
Sea Level Pressure 30.01 in    
Wind  
Wind Speed 6 mph (North)    
Max Wind Speed 13 mph    
Max Gust Speed -    
Visibility 8 miles    
Events Snow    
T = Trace of Precipitation, MM = Missing Value Source: NWS Daily Summary

Daily Weather History Graph

Daily Weather History Graph

Search for Another Location

Airport:

Trip Planner

Search our weather history database for the weather conditions in past years. The results will help you decide how hot, cold, wet, or windy it might be!

Date:

Astronomy

Feb. 01, 2014 Rise Set
Actual Time 7:33 AM CST 5:48 PM CST
Civil Twilight 7:05 AM CST 6:16 PM CST
Nautical Twilight 6:33 AM CST 6:48 PM CST
Astronomical Twilight 6:02 AM CST 7:19 PM CST
Moon 8:25 AM CST (2/1) 8:23 PM CST (2/1)
Length of Visible Light 11h 11m
Length of Day
10h 14m
Waxing Crescent, 5% of the Moon is Illuminated
Feb 1
Waxing Crescent
Feb 6
First Quarter
Feb 14
Full
Feb 22
Last Quarter
Mar 1
New

Hourly Weather History & Observations

Time (CST) Temp. Windchill Dew Point Humidity Pressure Visibility Wind Dir Wind Speed Gust Speed Precip Events Conditions
12:03 AM 19.4 °F - 19.4 °F 100% 29.94 in 1.2 mi North 2.3 mph - N/A Snow Light Snow
12:08 AM 19.4 °F - 19.4 °F 100% 29.93 in 1.0 mi North 2.3 mph - N/A Snow Light Snow
12:18 AM 19.4 °F 12.8 °F 19.4 °F 100% 29.92 in 1.0 mi NNE 4.6 mph - N/A Snow Light Snow
12:23 AM 19.4 °F 11.5 °F 19.4 °F 100% 29.90 in 1.5 mi NNE 5.8 mph - N/A Snow Light Snow
12:28 AM 19.4 °F 9.5 °F 19.4 °F 100% 29.89 in 1.2 mi NE 8.1 mph - N/A Snow Light Snow
12:33 AM 19.4 °F 9.5 °F 19.4 °F 100% 29.89 in 0.8 mi NE 8.1 mph - N/A Snow Light Snow
12:43 AM 19.4 °F 7.9 °F 19.4 °F 100% 29.88 in 1.0 mi NNE 10.4 mph - N/A Snow Light Snow
12:48 AM 19.4 °F 8.6 °F 19.4 °F 100% 29.87 in 1.8 mi NE 9.2 mph - N/A Snow Light Snow
12:53 AM 19.4 °F 9.5 °F 19.4 °F 100% 29.88 in 2.0 mi North 8.1 mph - N/A Snow Light Snow
12:58 AM 19.4 °F 11.5 °F 19.4 °F 100% 29.94 in 3.0 mi North 5.8 mph - 0.05 in Snow Light Snow
1:03 AM 19.4 °F 10.4 °F 19.4 °F 100% 29.95 in 6.0 mi West 6.9 mph - N/A Snow Light Snow
1:13 AM 19.4 °F 11.5 °F 19.4 °F 100% 29.90 in 2.5 mi North 5.8 mph - N/A Snow Light Snow
1:18 AM 19.4 °F 9.5 °F 19.4 °F 100% 29.89 in 2.0 mi NNE 8.1 mph - N/A Snow Light Snow
1:23 AM 19.4 °F 12.8 °F 19.4 °F 100% 29.89 in 1.8 mi NNE 4.6 mph - N/A Snow Light Snow
1:33 AM 19.4 °F 10.4 °F 19.4 °F 100% 29.89 in 1.5 mi NE 6.9 mph - N/A Snow Light Snow
1:43 AM 19.4 °F 12.8 °F 19.4 °F 100% 29.91 in 2.0 mi NNW 4.6 mph - N/A Snow Light Snow
1:53 AM 19.4 °F 12.8 °F 19.4 °F 100% 29.90 in 3.0 mi North 4.6 mph - N/A Snow Light Snow
1:58 AM 20.1 °F 13.6 °F 19.8 °F 99% 29.94 in 6.0 mi North 4.6 mph - 0.04 in Snow Light Snow
2:58 AM 20.7 °F 13.0 °F 19.4 °F 95% 29.93 in 10.0 mi NNE 5.8 mph - 0.01 in   Light Freezing Rain
3:58 AM 21.0 °F 13.4 °F 18.7 °F 91% 29.92 in 10.0 mi NNE 5.8 mph - 0.01 in   Light Freezing Rain
4:08 AM 21.2 °F 11.7 °F 19.4 °F 93% 29.88 in 10.0 mi North 8.1 mph - N/A   Light Freezing Rain
4:18 AM 21.2 °F 12.6 °F 17.6 °F 86% 29.89 in 10.0 mi North 6.9 mph - N/A   Light Freezing Rain
4:23 AM 21.2 °F 13.6 °F 17.6 °F 86% 29.89 in 10.0 mi NNE 5.8 mph - N/A   Light Freezing Rain
4:58 AM 21.0 °F 14.6 °F 18.3 °F 89% 29.94 in 10.0 mi NNE 4.6 mph - 0.00 in   Light Freezing Rain
5:58 AM 21.2 °F 16.4 °F 18.5 °F 89% 29.94 in 10.0 mi North 3.5 mph - 0.00 in   Light Freezing Rain
6:23 AM 21.2 °F 13.6 °F 17.6 °F 86% 29.91 in 10.0 mi North 5.8 mph - N/A   Light Freezing Rain
6:58 AM 21.2 °F 16.4 °F 18.1 °F 88% 29.96 in 10.0 mi North 3.5 mph - 0.00 in   Light Freezing Rain
7:58 AM 21.6 °F 13.0 °F 18.9 °F 89% 29.99 in 10.0 mi Variable 6.9 mph - 0.00 in   Light Freezing Rain
8:03 AM 21.2 °F 12.6 °F 19.4 °F 93% 29.96 in 10.0 mi North 6.9 mph - N/A   Light Freezing Rain
8:28 AM 21.2 °F 13.6 °F 19.4 °F 93% 29.97 in 10.0 mi NNW 5.8 mph - N/A   Light Freezing Rain
8:33 AM 21.2 °F 13.6 °F 19.4 °F 93% 29.97 in 10.0 mi North 5.8 mph - N/A   Light Freezing Rain
8:43 AM 21.2 °F 16.4 °F 19.4 °F 93% 29.98 in 10.0 mi North 3.5 mph - N/A   Light Freezing Rain
8:58 AM 22.3 °F 16.1 °F 19.4 °F 89% 30.02 in 10.0 mi North 4.6 mph - 0.00 in   Light Freezing Rain
9:58 AM 23.4 °F 16.2 °F 19.6 °F 85% 30.04 in 10.0 mi NNW 5.8 mph - 0.00 in   Light Freezing Rain
10:58 AM 24.6 °F 15.8 °F 19.6 °F 81% 30.06 in 10.0 mi NNW 8.1 mph - 0.00 in   Light Freezing Rain
11:07 AM 24.8 °F 17.9 °F 19.4 °F 80% 30.03 in 10.0 mi North 5.8 mph - N/A   Overcast
11:17 AM 24.8 °F 15.3 °F 19.4 °F 80% 30.04 in 10.0 mi NNW 9.2 mph - N/A   Overcast
11:22 AM 24.8 °F 14.6 °F 19.4 °F 80% 30.04 in 10.0 mi NNW 10.4 mph - N/A   Overcast
11:58 AM 26.1 °F 16.8 °F 20.3 °F 79% 30.08 in 10.0 mi North 9.2 mph - 0.00 in   Overcast
12:58 PM 26.6 °F 16.2 °F 20.1 °F 77% 30.05 in 10.0 mi NNW 11.5 mph - N/A   Scattered Clouds
1:28 PM 26.6 °F 18.2 °F 19.4 °F 74% 30.01 in 10.0 mi North 8.1 mph - N/A   Mostly Cloudy
1:58 PM 27.1 °F 16.9 °F 20.1 °F 75% 30.06 in 10.0 mi North 11.5 mph - N/A   Overcast
2:13 PM 26.6 °F 17.5 °F 21.2 °F 80% 30.02 in 10.0 mi North 9.2 mph - N/A   Overcast
2:18 PM 26.6 °F 16.2 °F 21.2 °F 80% 30.02 in 10.0 mi North 11.5 mph - N/A   Mostly Cloudy
2:38 PM 28.4 °F 18.5 °F 21.2 °F 74% 30.03 in 10.0 mi North 11.5 mph - N/A   Mostly Cloudy
2:53 PM 28.4 °F 18.0 °F 21.2 °F 74% 30.04 in 10.0 mi North 12.7 mph - N/A   Overcast
2:58 PM 27.9 °F 19.1 °F 20.8 °F 75% 30.08 in 10.0 mi North 9.2 mph - N/A   Overcast
3:03 PM 28.4 °F 19.7 °F 21.2 °F 74% 30.04 in 10.0 mi North 9.2 mph - N/A   Overcast
3:58 PM 28.0 °F 18.6 °F 21.4 °F 76% 30.10 in 10.0 mi North 10.4 mph - N/A   Overcast
4:38 PM 28.4 °F 18.0 °F 21.2 °F 74% 30.07 in 10.0 mi North 12.7 mph - N/A   Overcast
4:58 PM 27.7 °F 17.1 °F 19.4 °F 71% 30.13 in 10.0 mi North 12.7 mph - N/A   Overcast
5:58 PM 26.4 °F 18.0 °F 16.9 °F 67% 30.19 in 10.0 mi North 8.1 mph - N/A   Overcast
6:38 PM 24.8 °F 13.4 °F 15.8 °F 69% 30.16 in 10.0 mi North 12.7 mph - N/A   Overcast
6:58 PM 25.2 °F 15.1 °F 15.1 °F 66% 30.21 in 10.0 mi North 10.4 mph - N/A   Overcast
7:58 PM 22.5 °F 11.7 °F 14.7 °F 72% 30.26 in 10.0 mi NNW 10.4 mph - N/A   Mostly Cloudy
8:58 PM 22.3 °F 13.0 °F 13.8 °F 70% 30.29 in 10.0 mi North 8.1 mph - N/A   Overcast
9:58 PM 21.9 °F 13.4 °F 13.3 °F 69% 30.30 in 10.0 mi North 6.9 mph - N/A   Overcast
10:58 PM 20.5 °F 12.8 °F 11.8 °F 69% 30.31 in 10.0 mi North 5.8 mph - N/A   Overcast
11:58 PM 18.5 °F 7.5 °F 7.0 °F 61% 30.33 in 10.0 mi North 9.2 mph - N/A   Clear